Location: Atherton
(17.2661°S, 145.4859°E)
Time: 23:11:05
(UTC+10:00)

Transit 2A - Pass Details

Date: 23 June 2025
Orbit: 598 x 948 km, 66.7° (Epoch: 19 July)

Event Time Altitude Azimuth Distance (km) Brightness Sun altitude
Rises 21:32:29 0° 218° (SW) 3,325 - -50.3°
Reaches altitude 10° 21:35:20 10° 230° (SW) 2,324 - -51.0°
Maximum altitude 21:39:43 27° 286° (WNW) 1,378 - -52.0°
Drops below altitude 10° 21:43:45 10° 343° (NNW) 2,117 - -52.9°
Sets 21:46:15 0° 356° (N) 2,972 - -53.5°
